[[{"header":{"parameterUnit":"m.s-1","parameterCategory":1,"la1":30.2991,"la2":30.254,"lo1":-89.0895,"lo2":-89.0444,"dx":0.0017,"dy":0.0017,"nx":28,"ny":28,"refTime":"2022-11-05T21:00:00:Z","depth":0,"parameterNumber":2,"parameterNumberName":"U-component_of_WINDS"},"data":[0,0,0,0,0,0,0,0,0,0,0,0,0,0,0,0,0,0,0,0,0,0,0,0,0,0,0,0,0,0,0,0,0,0,0,0,0,0,0,0,0,0,0,0,0,0,0,0,0,0,0,0,0,0,0,0,0,0,-1.2773,-1.2774,0,-1.2831,-1.2832,-1.2832,-1.2808,-1.2806,-1.2805,-1.2803,-1.2865,-1.2868,-1.287,0,0,0,0,0,0,0,0,0,0,0,0,0,-1.2642,-1.2645,-1.2773,-1.2774,-1.2774,-1.2831,-1.2832,-1.2833,-1.2808,-1.2806,-1.2804,-1.2803,-1.2864,-1.2867,-1.2871,0,0,0,0,0,0,0,0,0,0,0,0,0,-1.27,-1.2645,-1.2773,-1.2769,-1.2769,-1.2831,-1.2832,-1.2833,-1.2808,-1.2806,-1.2804,-1.2802,-1.2863,-1.2867,-1.2871,-1.2941,0,0,-1.2885,-1.2887,0,0,0,0,0,0,0,0,-1.2696,-1.2704,-1.2769,-1.2769,-1.277,-1.281,-1.2808,-1.2869,-1.2809,-1.2793,-1.2803,-1.2801,-1.2848,-1.2854,-1.2869,-1.2944,-1.2946,-1.2885,-1.2888,-1.289,-1.2891,0,0,0,0,0,0,0,-1.2692,-1.2702,-1.2796,-1.277,-1.277,-1.2765,-1.277,-1.282,-1.2832,-1.2795,-1.2793,-1.28,-1.2848,-1.2865,-1.2871,-1.2947,-1.2885,-1.2889,-1.2892,-1.2893,-1.3082,-1.3084,0,0,0,0,0,0,-1.2688,-1.2699,-1.2794,-1.2798,-1.2727,-1.2769,-1.2775,-1.2799,-1.2831,-1.2834,-1.2802,-1.2799,-1.2859,-1.2865,-1.2873,-1.2957,-1.289,-1.2894,-1.2896,-1.308,-1.3083,-1.3085,0,0,0,0,0,0,-1.2685,-1.2697,-1.2792,-1.2748,-1.2759,-1.2773,-1.28,-1.2801,-1.2818,-1.2837,-1.2839,-1.2817,-1.2857,-1.2866,-1.2924,-1.2959,-1.2896,-1.29,-1.3077,-1.3081,-1.3084,-1.3126,0,0,0,0,0,0,-1.2682,-1.2696,-1.2722,-1.2748,-1.2762,-1.2842,-1.2802,-1.2804,-1.2826,-1.2822,-1.2852,-1.2854,-1.2856,-1.2918,-1.2928,-1.2964,-1.2903,-1.3074,-1.3079,-1.3083,-1.3121,-1.313,-1.3138,0,0,0,0,0,-1.2677,-1.2732,-1.2724,-1.2735,-1.2795,-1.2844,-1.2852,-1.2852,-1.2829,-1.2856,-1.2867,-1.2853,-1.2953,-1.2924,-1.2936,-1.2973,-1.3072,-1.3077,-1.3083,-1.3117,-1.3128,-1.3137,0,0,0,0,0,0,-1.271,-1.2735,-1.2727,-1.2791,-1.2816,-1.284,-1.2874,-1.2864,-1.2896,-1.2891,-1.2891,-1.2898,-1.2957,-1.2971,-1.2938,-1.3042,-1.3009,-1.3017,-1.3031,-1.3042,-1.305,-1.3046,-1.2907,0,0,0,0,0,-1.2725,-1.2762,-1.2782,-1.2838,-1.285,-1.286,-1.2881,-1.2879,-1.2905,-1.2915,-1.2931,-1.2957,-1.2994,-1.3018,-1.3053,-1.3123,-1.3129,-1.3154,-1.3162,-1.3169,-1.3176,-1.3214,-1.3226,-1.3103,-1.3103,-1.3103,0,0,-1.2756,-1.2774,-1.2798,-1.2845,-1.2863,-1.2902,-1.2869,-1.2911,-1.2941,-1.2922,-1.2977,-1.299,-1.3019,-1.3082,-1.3111,-1.3095,-1.3211,-1.3176,-1.3181,-1.3185,-1.3221,-1.3233,-1.3243,-1.3106,-1.3106,-1.3105,0,0,-1.2833,-1.285,-1.2898,-1.2917,-1.2946,-1.2952,-1.2963,-1.2989,-1.2996,-1.3052,-1.3039,-1.3074,-1.3137,-1.3158,-1.3177,-1.3262,-1.3251,-1.3273,-1.3317,-1.3354,-1.3364,-1.3372,-1.3403,-1.3414,-1.328,-1.328,-1.328,0,-1.2868,-1.2926,-1.2924,-1.2968,-1.299,-1.2973,-1.3023,-1.3041,-1.308,-1.3095,-1.3077,-1.3156,-1.3174,-1.3243,-1.3264,-1.3279,-1.3293,-1.327,-1.3362,-1.3371,-1.3379,-1.3409,-1.342,-1.3283,-1.3283,-1.3282,-1.3282,0,-1.2969,-1.3009,-1.3045,-1.3082,-1.3107,-1.3153,-1.3159,-1.3185,-1.3181,-1.3189,-1.3246,-1.3267,-1.3306,-1.3322,-1.3319,-1.3391,-1.338,-1.3362,-1.3329,-1.3394,-1.3421,-1.3433,-1.3287,-1.3286,-1.3285,-1.3284,0,0,-1.3069,-1.3104,-1.3117,-1.3134,-1.3164,-1.3195,-1.3241,-1.3279,-1.3301,-1.3328,-1.3367,-1.3421,-1.3405,-1.3426,-1.3425,-1.3458,-1.3524,-1.3436,-1.3436,-1.3452,-1.3606,-1.362,-1.3633,-1.3516,-1.3519,-1.352,-1.3604,0,-1.3149,-1.3228,-1.3228,-1.3302,-1.334,-1.3325,-1.3365,-1.3388,-1.3396,-1.343,-1.344,-1.3478,-1.3453,-1.3466,-1.3497,-1.351,-1.3555,-1.3503,-1.3554,-1.3556,-1.3548,-1.3648,-1.3663,-1.3741,-1.3615,-1.3616,-1.3618,0,-1.3253,-1.3283,-1.336,-1.3385,-1.3401,-1.3436,-1.3471,-1.3503,-1.3529,-1.3533,-1.3557,-1.3551,-1.3598,-1.3563,-1.3628,-1.3593,-1.3613,-1.3622,-1.3625,-1.3631,-1.3591,-1.3657,-1.3766,-1.3778,-1.3635,-1.3633,-1.3632,0,-1.332,-1.3379,-1.3433,-1.3448,-1.3478,-1.3503,-1.3517,-1.3541,-1.3563,-1.3594,-1.3609,-1.3644,-1.3664,-1.3692,-1.3696,-1.367,-1.3762,-1.3727,-1.3768,-1.3768,-1.3789,-1.3788,-1.3903,-1.38,-1.38,-1.38,-1.38,0,-1.341,-1.3458,-1.3464,-1.3497,-1.3551,-1.355,-1.3604,-1.3615,-1.3636,-1.3672,-1.3661,-1.3695,-1.3697,-1.3733,-1.3736,-1.379,-1.3799,-1.3804,-1.3805,-1.3806,-1.3805,-1.382,-1.3815,-1.3803,-1.3802,-1.3802,-1.3801,0,-1.3494,-1.3499,-1.3558,-1.3581,-1.3587,-1.3626,-1.3646,-1.3679,-1.3686,-1.3731,-1.3742,-1.3754,-1.3795,-1.3801,-1.3849,-1.3851,-1.3916,-1.3911,-1.3908,-1.3907,-1.3948,-1.3945,-1.4078,-1.4096,-1.398,-1.3981,-1.3982,0,-1.3551,-1.3588,-1.3615,-1.3638,-1.3653,-1.369,-1.3713,-1.3713,-1.3738,-1.377,-1.3798,-1.3838,-1.3869,-1.3936,-1.3949,-1.3986,-1.3982,-1.4026,-1.3987,-1.3987,-1.3984,-1.3982,-1.3986,-1.4034,-1.4035,-1.4036,-1.4037,0,-1.3654,-1.3654,-1.3688,-1.3722,-1.375,-1.3777,-1.3803,-1.3822,-1.3826,-1.3854,-1.3895,-1.392,-1.3968,-1.4008,-1.4045,-1.4059,-1.4049,-1.4048,-1.406,-1.4062,-1.406,-1.4063,-1.3929,-1.4046,-1.4045,-1.4044,-1.4044,-1.4043,-1.3727,-1.3759,-1.3783,-1.382,-1.3839,-1.3864,-1.3895,-1.3906,-1.394,-1.398,-1.3977,-1.4023,-1.4048,-1.4096,-1.4113,-1.4149,-1.4135,-1.4151,-1.4156,-1.416,-1.4165,-1.4053,-1.4156,-1.4155,-1.4155,-1.4155,-1.4155,0,-1.383,-1.3844,-1.3878,-1.3914,-1.3944,-1.393,-1.3958,-1.3984,-1.4024,-1.4048,-1.4079,-1.4127,-1.4165,-1.4181,-1.4219,-1.4245,-1.4241,-1.4255,-1.4254,-1.4257,-1.4175,-1.4162,-1.4257,-1.4257,-1.4257,-1.4257,-1.4257,-1.4257,-1.3887,-1.394,-1.3944,-1.4007,-1.4021,-1.4065,-1.4082,-1.4105,-1.4124,-1.4177,-1.4209,-1.4219,-1.424,-1.4279,-1.4314,-1.4317,-1.4332,-1.4348,-1.435,-1.4273,-1.4263,-1.4253,-1.4241,-1.4351,-1.4351,-1.443,-1.443,-1.4431]},{"header":{"parameterUnit":"m.s-1","parameterCategory":1,"la1":30.2991,"la2":30.254,"lo1":-89.0895,"lo2":-89.0444,"dx":0.0017,"dy":0.0017,"nx":28,"ny":28,"refTime":"2022-11-05T21:00:00:Z","depth":0,"parameterNumber":3,"parameterNumberName":"V-component_of_WINDS"},"data":[0,0,0,0,0,0,0,0,0,0,0,0,0,0,0,0,0,0,0,0,0,0,0,0,0,0,0,0,0,0,0,0,0,0,0,0,0,0,0,0,0,0,0,0,0,0,0,0,0,0,0,0,0,0,0,0,0,0,-2.378,-2.378,0,-2.377,-2.377,-2.377,-2.3726,-2.3725,-2.3724,-2.3723,-2.3713,-2.3714,-2.3714,0,0,0,0,0,0,0,0,0,0,0,0,0,-2.376,-2.3761,-2.378,-2.378,-2.3779,-2.377,-2.377,-2.377,-2.3726,-2.3725,-2.3724,-2.3723,-2.3713,-2.3714,-2.3714,0,0,0,0,0,0,0,0,0,0,0,0,0,-2.3762,-2.3761,-2.378,-2.3757,-2.3754,-2.377,-2.377,-2.377,-2.3726,-2.3725,-2.3723,-2.3722,-2.3713,-2.3714,-2.3715,-2.3752,0,0,-2.3718,-2.3718,0,0,0,0,0,0,0,0,-2.3761,-2.3762,-2.376,-2.3758,-2.3756,-2.3748,-2.376,-2.3764,-2.3727,-2.3737,-2.3723,-2.3721,-2.3726,-2.3726,-2.3727,-2.3752,-2.3751,-2.3718,-2.3719,-2.3719,-2.3719,0,0,0,0,0,0,0,-2.3761,-2.3762,-2.3776,-2.376,-2.3757,-2.3747,-2.3745,-2.376,-2.374,-2.3736,-2.3733,-2.3732,-2.3724,-2.3726,-2.3727,-2.3751,-2.3718,-2.3719,-2.3719,-2.372,-2.3806,-2.3808,0,0,0,0,0,0,-2.3765,-2.3763,-2.3776,-2.3776,-2.3755,-2.3748,-2.3747,-2.3752,-2.374,-2.3737,-2.3734,-2.373,-2.3725,-2.3726,-2.3726,-2.377,-2.3719,-2.372,-2.3721,-2.3805,-2.3807,-2.3809,0,0,0,0,0,0,-2.3764,-2.3766,-2.3777,-2.3768,-2.3769,-2.375,-2.3757,-2.3753,-2.3754,-2.3738,-2.3734,-2.3739,-2.3724,-2.3725,-2.3746,-2.3769,-2.372,-2.3721,-2.3803,-2.3805,-2.3808,-2.3856,0,0,0,0,0,0,-2.3764,-2.3766,-2.378,-2.3769,-2.3769,-2.3797,-2.3758,-2.3753,-2.3756,-2.3752,-2.3743,-2.3739,-2.3723,-2.3745,-2.3747,-2.3769,-2.3722,-2.3801,-2.3804,-2.3807,-2.3853,-2.386,-2.3867,0,0,0,0,0,-2.3763,-2.3794,-2.3781,-2.3783,-2.3786,-2.3798,-2.3798,-2.3779,-2.3758,-2.3772,-2.3762,-2.374,-2.3766,-2.3747,-2.375,-2.3772,-2.3799,-2.3803,-2.3807,-2.385,-2.3859,-2.3867,0,0,0,0,0,0,-2.3808,-2.3792,-2.3778,-2.3805,-2.3804,-2.3791,-2.3807,-2.3789,-2.3793,-2.3788,-2.3764,-2.3762,-2.3787,-2.3782,-2.3762,-2.3808,-2.3779,-2.3783,-2.3811,-2.3819,-2.3826,-2.3827,-2.3723,0,0,0,0,0,-2.3821,-2.3832,-2.3817,-2.3843,-2.3843,-2.3826,-2.383,-2.3815,-2.3812,-2.3811,-2.3802,-2.38,-2.3808,-2.3813,-2.382,-2.3852,-2.385,-2.3869,-2.3876,-2.3882,-2.3886,-2.3903,-2.3912,-2.3821,-2.3821,-2.3821,0,0,-2.3848,-2.3841,-2.3849,-2.3852,-2.3849,-2.3861,-2.3825,-2.3839,-2.3848,-2.3813,-2.3833,-2.3827,-2.3823,-2.385,-2.3862,-2.3846,-2.391,-2.3887,-2.3891,-2.3892,-2.3908,-2.3916,-2.3924,-2.3824,-2.3823,-2.3823,0,0,-2.3903,-2.3899,-2.392,-2.3918,-2.3914,-2.3902,-2.3908,-2.3898,-2.3892,-2.3912,-2.3887,-2.3897,-2.391,-2.3909,-2.391,-2.3966,-2.3946,-2.3969,-2.4006,-2.4023,-2.403,-2.4036,-2.4056,-2.4064,-2.3973,-2.3973,-2.3974,0,-2.3937,-2.3954,-2.3933,-2.3949,-2.3952,-2.3922,-2.3944,-2.3942,-2.3941,-2.3943,-2.3926,-2.3944,-2.3939,-2.3965,-2.3979,-2.3981,-2.3987,-2.397,-2.4031,-2.4037,-2.4042,-2.4061,-2.4069,-2.3976,-2.3976,-2.3976,-2.3975,0,-2.3996,-2.4008,-2.4026,-2.4026,-2.403,-2.4049,-2.4032,-2.4039,-2.4024,-2.4015,-2.4036,-2.4029,-2.4034,-2.4039,-2.4025,-2.4064,-2.4055,-2.4035,-2.4005,-2.4054,-2.4071,-2.4078,-2.398,-2.3979,-2.3978,-2.3978,0,0,-2.4077,-2.4066,-2.4073,-2.4073,-2.4067,-2.4076,-2.4094,-2.4099,-2.4106,-2.4106,-2.4121,-2.4134,-2.4115,-2.4117,-2.4102,-2.4117,-2.4163,-2.4095,-2.4095,-2.4108,-2.4206,-2.4221,-2.423,-2.415,-2.4151,-2.4152,-2.4207,0,-2.413,-2.4159,-2.4142,-2.4175,-2.4186,-2.4159,-2.4175,-2.4173,-2.4165,-2.4173,-2.4164,-2.4174,-2.4149,-2.415,-2.4164,-2.4154,-2.4182,-2.415,-2.4163,-2.4164,-2.4164,-2.4239,-2.4255,-2.4306,-2.4213,-2.4215,-2.4215,0,-2.4194,-2.4198,-2.4232,-2.4225,-2.4229,-2.4243,-2.4247,-2.4256,-2.4254,-2.4247,-2.4249,-2.4231,-2.4249,-2.422,-2.4243,-2.4222,-2.4227,-2.4223,-2.4225,-2.4224,-2.4192,-2.4241,-2.4322,-2.433,-2.4226,-2.4225,-2.4224,0,-2.425,-2.4264,-2.4286,-2.4287,-2.4279,-2.429,-2.4287,-2.4283,-2.4288,-2.4292,-2.4294,-2.43,-2.4303,-2.4307,-2.4292,-2.4272,-2.4318,-2.4287,-2.4312,-2.4313,-2.4322,-2.4322,-2.4405,-2.4326,-2.4326,-2.4326,-2.4326,0,-2.431,-2.4332,-2.4311,-2.4324,-2.4348,-2.4329,-2.4353,-2.4347,-2.4345,-2.4357,-2.4334,-2.4346,-2.4324,-2.4334,-2.4322,-2.4344,-2.4346,-2.434,-2.4337,-2.4342,-2.4343,-2.4344,-2.434,-2.4328,-2.4328,-2.4327,-2.4327,0,-2.4376,-2.4363,-2.4385,-2.4377,-2.4375,-2.4393,-2.4386,-2.4398,-2.4389,-2.4405,-2.4408,-2.4393,-2.4404,-2.4389,-2.4398,-2.439,-2.442,-2.4411,-2.4421,-2.4418,-2.4444,-2.4442,-2.453,-2.4541,-2.4456,-2.4457,-2.4457,0,-2.4414,-2.4431,-2.4425,-2.4431,-2.443,-2.4441,-2.4446,-2.4428,-2.4434,-2.4434,-2.4447,-2.4456,-2.4461,-2.448,-2.447,-2.4477,-2.4468,-2.4499,-2.4469,-2.4474,-2.4468,-2.4467,-2.4469,-2.4505,-2.4506,-2.4507,-2.4507,0,-2.4485,-2.4478,-2.4486,-2.4493,-2.4499,-2.4503,-2.4505,-2.4512,-2.4494,-2.4502,-2.4513,-2.4517,-2.4527,-2.4536,-2.4541,-2.4538,-2.452,-2.4517,-2.4523,-2.4529,-2.4533,-2.4531,-2.4437,-2.4515,-2.4514,-2.4514,-2.4513,-2.4513,-2.4538,-2.4551,-2.455,-2.456,-2.456,-2.4563,-2.4574,-2.4568,-2.4576,-2.4583,-2.4572,-2.4586,-2.4585,-2.4589,-2.4589,-2.4599,-2.4586,-2.4595,-2.4597,-2.46,-2.4604,-2.4533,-2.46,-2.46,-2.46,-2.46,-2.4599,0,-2.4607,-2.4605,-2.4615,-2.4619,-2.4627,-2.461,-2.4612,-2.462,-2.4633,-2.4633,-2.464,-2.4653,-2.4662,-2.4654,-2.4662,-2.4672,-2.4664,-2.4675,-2.4673,-2.4673,-2.4615,-2.4609,-2.4681,-2.4681,-2.4681,-2.4681,-2.4681,-2.4681,-2.4644,-2.4666,-2.4659,-2.4682,-2.4679,-2.4693,-2.4696,-2.4699,-2.4699,-2.4715,-2.4723,-2.4718,-2.4715,-2.4722,-2.473,-2.4727,-2.4731,-2.4745,-2.4739,-2.4685,-2.4677,-2.4669,-2.4664,-2.4746,-2.4746,-2.4796,-2.4797,-2.4797]}]]